Satellite: MET-3/5
Catalog number: 21655
Epoch time:      10098.44078953
Element set:     781
Inclination:      082.5614 deg
RA of node:       357.9154 deg
Eccentricity:    0.0013715
Arg of perigee:   158.0478 deg
Mean anomaly:     202.1240 deg
Mean motion:   13.17024819 rev/day
Decay rate:        5.1e-07 rev/day^2
Epoch rev:           89649
Checksum:              311

Satellite: MET-2/21
Catalog number: 22782
Epoch time:      10097.64111030
Element set:    0743
Inclination:      082.5465 deg
RA of node:       308.4202 deg
Eccentricity:    0.0020883
Arg of perigee:   239.4679 deg
Mean anomaly:     120.4403 deg
Mean motion:   13.83642662 rev/day
Decay rate:       -4.9e-07 rev/day^2
Epoch rev:           83832
Checksum:              287

Satellite: OKEAN-4
Catalog number: 23317
Epoch time:      10098.68127580
Element set:     199
Inclination:      082.5391 deg
RA of node:       058.7280 deg
Eccentricity:    0.0023883
Arg of perigee:   109.0696 deg
Mean anomaly:     251.3102 deg
Mean motion:   14.82795823 rev/day
Decay rate:       6.24e-06 rev/day^2
Epoch rev:           83615
Checksum:              315

Satellite: NOAA-14
Catalog number: 23455
Epoch time:      10097.79514847
Element set:    0011
Inclination:      098.8779 deg
RA of node:       179.0241 deg
Eccentricity:    0.0010336
Arg of perigee:   078.6649 deg
Mean anomaly:     281.5679 deg
Mean motion:   14.13781188 rev/day
Decay rate:      -2.21e-06 rev/day^2
Epoch rev:           78755
Checksum:              341

Satellite: NOAA-15
Catalog number: 25338
Epoch time:      10097.85977361
Element set:    0331
Inclination:      098.6156 deg
RA of node:       086.0623 deg
Eccentricity:    0.0009639
Arg of perigee:   281.6748 deg
Mean anomaly:     078.3351 deg
Mean motion:   14.24816994 rev/day
Decay rate:       1.98e-06 rev/day^2
Epoch rev:           61873
Checksum:              348

Satellite: RESURS
Catalog number: 25394
Epoch time:      10097.60104273
Element set:    0475
Inclination:      098.3092 deg
RA of node:       119.5110 deg
Eccentricity:    0.0002417
Arg of perigee:   077.9149 deg
Mean anomaly:     282.2296 deg
Mean motion:   14.24198571 rev/day
Decay rate:       3.01e-06 rev/day^2
Epoch rev:           61030
Checksum:              275

Satellite: FENGYUN1
Catalog number: 25730
Epoch time:      10097.96464884
Element set:    0016
Inclination:      098.7816 deg
RA of node:       064.7567 deg
Eccentricity:    0.0024557
Arg of perigee:   104.2075 deg
Mean anomaly:     256.1828 deg
Mean motion:   14.08215178 rev/day
Decay rate:      1.119e-05 rev/day^2
Epoch rev:           56180
Checksum:              316

Satellite: OKEAN-0
Catalog number: 25860
Epoch time:      10097.46015718
Element set:    0961
Inclination:      097.8264 deg
RA of node:       072.5895 deg
Eccentricity:    0.0001004
Arg of perigee:   044.8132 deg
Mean anomaly:     315.3153 deg
Mean motion:   14.73628438 rev/day
Decay rate:       1.04e-06 rev/day^2
Epoch rev:           57648
Checksum:              297

Satellite: NOAA-16
Catalog number: 26536
Epoch time:      10097.88953581
Element set:    0807
Inclination:      099.1744 deg
RA of node:       113.6905 deg
Eccentricity:    0.0010731
Arg of perigee:   170.0638 deg
Mean anomaly:     190.0757 deg
Mean motion:   14.12552295 rev/day
Decay rate:       1.01e-06 rev/day^2
Epoch rev:           49190
Checksum:              304

Satellite: NOAA-17
Catalog number: 27453
Epoch time:      10097.94988536
Element set:    0813
Inclination:      098.4384 deg
RA of node:       151.1972 deg
Eccentricity:    0.0011367
Arg of perigee:   347.9697 deg
Mean anomaly:     012.1181 deg
Mean motion:   14.24146908 rev/day
Decay rate:       2.06e-06 rev/day^2
Epoch rev:           40470
Checksum:              321

Satellite: NOAA-18
Catalog number: 28654
Epoch time:      10097.97413749
Element set:    0297
Inclination:      098.9445 deg
RA of node:       044.4610 deg
Eccentricity:    0.0013533
Arg of perigee:   250.5802 deg
Mean anomaly:     109.3934 deg
Mean motion:   14.11345655 rev/day
Decay rate:       5.01e-06 rev/day^2
Epoch rev:           25153
Checksum:              304

Satellite: NOAA-19
Catalog number: 33591
Epoch time:      10097.94693901
Element set:    0496
Inclination:      098.7833 deg
RA of node:       041.5801 deg
Eccentricity:    0.0014816
Arg of perigee:   125.6122 deg
Mean anomaly:     234.6404 deg
Mean motion:   14.11041456 rev/day
Decay rate:        8.0e-07 rev/day^2
Epoch rev:           06000
Checksum:              279

/EX
SB KEPS @ AMSAT  $ORB10098.M
Orbital Elements  10098.MISC

HR AMSAT ORBITAL ELEMENTS FOR MANNED AND MISCELLANEOUS SATELLITES
FROM WA5QGD FORT WORTH,TX April 8, 2010
Send Subscribe/unsubscribe to KEPS at http://www.amsat.org/mailman/listinfo/kep
BID: ORB10098.M
TO ALL RADIO AMATEURS BT

Satellite: HUBBLE
Catalog number: 20580
Epoch time:      10096.10228843
Element set:     546
Inclination:      028.4699 deg
RA of node:       350.4344 deg
Eccentricity:    0.0003568
Arg of perigee:   151.7519 deg
Mean anomaly:     208.3319 deg
Mean motion:   15.00940823 rev/day
Decay rate:       7.73e-06 rev/day^2
Epoch rev:           89391
Checksum:              300

